Погода в Мизано-Адриатико

Италия     43°58′05″N   12°41′44″E
темп.,
°C
ветер,
м/с
пор.,
м/с
влажн.,
%
обл.,
%
осадки,
мм/ч
давл.,
гПа
погр.,
м
18 мая, вт
вт1823:00+15ююз33740 0.0 1011112
02:00+13ююз45770 0.0 1012114
05:00+13юз46780 0.0 1012151
08:00+14ююз337592 0.0 1014165
11:00+18ююз03620 0.0 1014227
14:00+20вюв4655100 0.0 1012430
17:00+20ссз25595 0.0 1012438
20:00+20юз4753100 0.0 1011174
19 мая, ср
ср1923:00+18юз4450100 0.0 101273
02:00+16юз345486 0.0 1012237
05:00+16з51068100 0.3 10111022
08:00+13зсз7992100 4.4 1013656
11:00+15ссв255997 4.3 1015849
14:00+15св776011 4.3 10171095
17:00+14вюв5660100 0.0 1016540
20:00+14юв556390 0.0 1015548
20 мая, чт
чт2023:00+14ю2363100 0.0 1016237
02:00+14вюв2258100 0.0 1015177
05:00+14вюв2365100 0.0 1016484
08:00+14юз116991 0.4 1017171
11:00+15с2271100 1.2 1019387
14:00+16ссв436855 1.2 1019473
17:00+16св43670 0.0 1019438
20:00+16юв22660 0.0 1021198
21 мая, пт
пт2123:00+14ю33745 0.0 1021131
02:00+14ю33720 0.0 1022107
05:00+14ю336673 0.0 1021103
08:00+15ююв335947 0.0 1021155
11:00+18вюв445353 0.0 1020275
14:00+19вюв65565 0.0 1018539
17:00+20вюв556186 0.0 1016266
20:00+20зюз336082 0.0 101628
22 мая, сб
сб2223:00+17ююз5762100 0.0 1016115
02:00+16ююз5764100 0.0 1014148
05:00+14ю5668100 0.0 1013123
08:00+15ю476064 0.0 1013219
11:00+20ююз71148100 0.0 1013300
14:00+21ююв6852100 0.0 1012299
17:00+22ююз41050100 0.0 1010240
20:00+21ююз71253100 0.0 1011258